Погода в Христофоровке

Украина / Николаевская область     47°16′00″N   32°15′27″E
темп.,
°C
ветер,
м/с
пор.,
м/с
влажн.,
%
обл.,
%
осадки,
мм/ч
давл.,
гПа
погр.,
м
13 июня, вс
вс1300:00+19зюз3472100 0.0 101192
03:00+19юз3472100 0.0 101179
06:00+18ююз3575100 0.0 1009116
09:00+21ююз587298 0.0 1009526
12:00+25ююз784652 0.0 10092335
15:00+25ююз784916 0.0 10081947
18:00+23ююз795563 0.0 10071337
21:00+18з3579100 0.1 1008166
14 июня, пн
пн1400:00+16зсз3596100 0.6 1008206
03:00+16с3695100 1.7 1008270
06:00+16в2395100 0.6 1008179
09:00+17юв3786100 1.5 1008280
12:00+17ююв41089100 1.8 1010650
15:00+17з3384100 1.9 1010399
18:00+17ссз338560 0.0 1010303
21:00+16с469214 0.0 1011112
15 июня, вт
вт1500:00+15св3493100 0.1 101169
03:00+15св3492100 0.8 101161
06:00+16св379199 0.0 1011149
09:00+21св5867100 0.1 1011467
12:00+26св6852100 0.4 10101712
15:00+24всв5861100 0.6 1008659
18:00+19в3688100 6.9 1009224
21:00+17в4887100 8.4 1009205
16 июня, ср
ср1600:00+17всв3890100 0.6 1009255
03:00+16ссв3892100 1.5 1008249
06:00+16ссв4797100 2.6 1008295
09:00+16св3696100 9.4 1010317
12:00+21св347397 0.8 1010884
15:00+22св2364100 1.9 10101060
18:00+20ссв4480100 1.3 1011227
21:00+17всв3378100 1.4 101250
17 июня, чт
чт1700:00+16св3481100 0.0 101269
03:00+16св368690 0.0 1012150
06:00+16ссв4889100 0.0 1013250
09:00+19св567760 0.0 1014541
12:00+23всв4559100 0.0 10141515
15:00+24св3559100 0.1 10141126
18:00+24в345891 0.0 1014376
21:00+20ссв1169100 0.0 101511